Flag for U.S.A. Weather past 2 weeks in Lancaster, California, U.S.A.

Now
51 °F

Cloudy.


Feels Like: 47 °F
Forecast: 41 / 53 °F
Wind: 12 mph from Northeast

Location: Lancaster / Fox Field

Current Time: Mar 1, 2015 at 1:00:33 PM

Latest Report: Mar 1, 2015 at 11:56 AM


Visibility: 10 mi

Pressure: 29.96 "Hg

Humidity: 63%

Dew point: 39 °F

Location of LancasterLocation

Historic Weather in Lancaster — Graph

°F

Lancaster temperature yesterday

Maximum temperature yesterday: 56 °F (at 1:56 PM)
Minimum temperature yesterday: 41 °F (at 6:56 AM)
Average temperature yesterday: 48 °F

Past Weeks' High & Low Weather Summary

 TemperatureHumidityPressure
High82 °F (Feb 16, 12:56 PM)97% (Mar 1, 6:56 AM)30.33 "Hg (Mar 1, 6:56 AM)
Low28 °F (Feb 24, 5:56 AM)11% (Feb 16, 12:56 PM)29.70 "Hg (Feb 27, 7:56 PM)
Average52 °F57%29.99 "Hg
* Reported Feb 14 10:56 AM — Mar 1 10:56 AM, Lancaster, Weather by CustomWeather, © 2015

Note: Actual official high and low records may vary slightly from our data, if they occured in-between our weather recording intervals... More about our weather records

Advertising

Lancaster weather history for previous 24 hours

 ConditionsComfort  
Time TempWeatherWind HumidityBarometerVisibility
10:56 AM
Sun, Mar 1
49 °FMore clouds than sun.5 mph69%29.98 "Hg10 mi
9:56 AM47 °FOvercast.3 mph77%29.99 "Hg10 mi
8:56 AM44 °FOvercast.No wind82%30.00 "Hg10 mi
7:56 AM42 °FOvercast.6 mph92%29.99 "Hg10 mi
6:56 AM40 °FScattered clouds.3 mph97%29.97 "Hg10 mi
5:56 AM42 °FMostly cloudy.No wind85%29.95 "Hg10 mi
4:56 AM42 °FLight rain. Overcast.7 mph89%29.94 "Hg10 mi
3:56 AM41 °FLight rain. Overcast.6 mph89%29.93 "Hg10 mi
2:56 AM39 °FPassing clouds.7 mph89%29.92 "Hg10 mi
1:56 AM42 °FPassing clouds.5 mph89%29.92 "Hg10 mi
12:56 AM42 °FPartly cloudy.3 mph89%29.92 "Hg10 mi
11:56 PM
Sat, Feb 28
44 °FLight rain. Mostly cloudy.7 mph85%29.92 "Hg10 mi
10:56 PM44 °FLight rain. Mostly cloudy.8 mph79%29.91 "Hg10 mi
9:56 PM45 °FOvercast.8 mph76%29.90 "Hg10 mi
8:56 PM45 °FOvercast.9 mph71%29.89 "Hg10 mi
8:04 PM46 °FMostly cloudy.7 mph68%29.87 "Hg10 mi
7:56 PM46 °FPassing clouds.7 mph68%29.88 "Hg10 mi
6:56 PM48 °FPassing clouds.12 mph66%29.85 "Hg10 mi
5:56 PM50 °FMostly cloudy.15 mph57%29.83 "Hg10 mi
4:56 PM52 °FMore clouds than sun.18 mph53%29.80 "Hg10 mi
3:56 PM53 °FPartly sunny.17 mph55%29.79 "Hg10 mi
2:56 PM55 °FPassing clouds.24 mph47%29.77 "Hg10 mi
1:56 PM56 °FSunny.21 mph44%29.76 "Hg10 mi
Weather by CustomWeather, © 2015

See weather overviewHow to use our weather pages